TimeEDT,TemperatureF,Dew PointF,Humidity,Sea Level PressureIn,VisibilityMPH,Wind Direction,Wind SpeedMPH,Gust SpeedMPH,PrecipitationIn,Events,Conditions,WindDirDegrees,DateUTC
12:54 AM,57.9,53.1,84,30.10,10.0,Calm,Calm,-,N/A,,Overcast,0,2013-09-30 04:54:00
1:54 AM,57.0,53.1,87,30.10,10.0,Calm,Calm,-,N/A,,Overcast,0,2013-09-30 05:54:00
2:54 AM,55.9,53.1,90,30.09,10.0,Calm,Calm,-,N/A,,Scattered Clouds,0,2013-09-30 06:54:00
3:54 AM,55.9,52.0,87,30.07,10.0,ESE,3.5,-,N/A,,Clear,110,2013-09-30 07:54:00
4:54 AM,55.0,52.0,89,30.09,10.0,Calm,Calm,-,N/A,,Mostly Cloudy,0,2013-09-30 08:54:00
5:54 AM,53.1,51.1,93,30.10,10.0,Calm,Calm,-,N/A,,Partly Cloudy,0,2013-09-30 09:54:00
6:54 AM,54.0,51.1,90,30.11,10.0,Calm,Calm,-,N/A,,Overcast,0,2013-09-30 10:54:00
7:54 AM,54.0,51.1,90,30.12,10.0,Calm,Calm,-,N/A,,Mostly Cloudy,0,2013-09-30 11:54:00
8:54 AM,57.0,52.0,83,30.12,10.0,NE,3.5,-,N/A,,Partly Cloudy,50,2013-09-30 12:54:00
9:54 AM,61.0,53.1,75,30.12,10.0,Calm,Calm,-,N/A,,Clear,0,2013-09-30 13:54:00
10:54 AM,64.9,53.1,65,30.11,10.0,SW,3.5,-,N/A,,Clear,230,2013-09-30 14:54:00
11:54 AM,68.0,52.0,56,30.09,10.0,Variable,3.5,-,N/A,,Clear,0,2013-09-30 15:54:00
12:54 PM,71.1,52.0,51,30.07,10.0,Variable,4.6,-,N/A,,Partly Cloudy,0,2013-09-30 16:54:00
1:54 PM,75.0,52.0,44,30.04,10.0,Variable,3.5,-,N/A,,Scattered Clouds,0,2013-09-30 17:54:00
2:54 PM,75.0,52.0,44,30.02,10.0,Calm,Calm,-,N/A,,Mostly Cloudy,0,2013-09-30 18:54:00
3:54 PM,75.9,53.1,45,30.01,10.0,WNW,5.8,-,N/A,,Mostly Cloudy,290,2013-09-30 19:54:00
4:54 PM,73.9,53.1,48,30.01,10.0,West,6.9,-,N/A,,Mostly Cloudy,270,2013-09-30 20:54:00
5:54 PM,72.0,54.0,53,30.02,10.0,West,4.6,-,N/A,,Overcast,260,2013-09-30 21:54:00
6:54 PM,71.1,55.0,57,30.03,10.0,West,3.5,-,N/A,,Overcast,260,2013-09-30 22:54:00
7:54 PM,69.1,55.9,63,30.05,10.0,Calm,Calm,-,N/A,,Overcast,0,2013-09-30 23:54:00
8:54 PM,66.9,57.9,73,30.06,10.0,WSW,3.5,-,N/A,,Overcast,250,2013-10-01 00:54:00
9:54 PM,66.0,57.9,75,30.07,10.0,Calm,Calm,-,N/A,,Mostly Cloudy,0,2013-10-01 01:54:00
10:54 PM,64.0,57.0,78,30.08,10.0,Calm,Calm,-,N/A,,Clear,0,2013-10-01 02:54:00
11:54 PM,62.1,57.0,84,30.08,10.0,Calm,Calm,-,N/A,,Clear,0,2013-10-01 03:54:00